Regional Weather Roundup
Issued by NWS

Home | Current Version | Previous Version | Graphics & Text | Print | Product List | Glossary Off
Versions: 1 2 3 4 5 6 7 8 9 10 11 12 13 14 15 16 17 18 19 20 21 22 23 24 25 26 27 28 29 30 31 32 33 34 35 36 37 38 39 40 41 42 43 44 45 46 47 48 49 50

947
ASUS43 KTOP 201608
RWRKS

WEATHER ROUNDUP FOR KANSAS
NATIONAL WEATHER SERVICE GOODLAND KS
1000 AM CST SAT JAN 20 2018

NOTE:  "FAIR" INDICATES FEW OR NO CLOUDS BELOW 12,000 FEET WITH NO
SIGNIFICANT WEATHER AND/OR OBSTRUCTIONS TO VISIBILITY.

KSZ001>006-013>018-027>032-041>047-201700-
NORTHWEST KANSAS

CITY           SKY/WX    TMP DP  RH WIND       PRES   REMARKS
GOODLAND       MOSUNNY   35  30  82 N10       29.77R WCI  27
HAYS           CLOUDY    33  19  56 CALM      29.77R
HILL CITY      CLOUDY    34  28  79 N8        29.79R
RUSSELL        CLOUDY    38  38 100 S10       29.77R FOG     WCI  31
$$

KSZ061>065-074>080-084>089-201700-
SOUTHWEST KANSAS

CITY           SKY/WX    TMP DP  RH WIND       PRES   REMARKS
DODGE CITY     CLOUDY    40  21  46 NW10      29.75R WCI  33
ELKHART        SUNNY     56  25  30 W3        29.78R
GARDEN CITY    CLOUDY   N/A N/A N/A NW9       29.75R
GREAT BEND     CLOUDY    39  39 100 S9        29.78R
LIBERAL        SUNNY     46  19  34 N6        29.77R
PRATT          CLOUDY    41  40  97 S15       29.79R FOG
$$

KSZ066>073-081>083-090>101-201700-
SOUTHEAST KANSAS

CITY           SKY/WX    TMP DP  RH WIND       PRES   REMARKS
CHANUTE        CLOUDY    50  45  83 S13       29.92R
COFFEYVILLE    CLOUDY    52  47  83 S13       29.93R
HUTCHINSON     CLOUDY    50  44  80 S20       29.80R
MEDICINE LODGE   N/A     45  44  97 S14       29.80R
NEWTON         CLOUDY    49  44  83 S24G31    29.82S
PARSONS        CLOUDY    51  47  86 S8        29.93R
WICHITA INTL   CLOUDY    51  46  83 S20       29.82S
WICHITA JABRA  CLOUDY    50  45  83 S17       29.83S
WICHITA MCCONL CLOUDY    50  43  76 S18G26    29.83S
WINFIELD       CLOUDY    52  46  80 S16G24    29.87R
$$

KSZ007>012-019>026-033>040-048>060-102>105-201700-
NORTHEAST KANSAS

CITY           SKY/WX    TMP DP  RH WIND       PRES   REMARKS
CONCORDIA      CLOUDY    45  42  89 S7        29.81R
EMPORIA        CLOUDY    48  44  86 S12       29.86R
LAWRENCE       CLOUDY    48  44  86 SE7       29.89R
MARYSVILLE     CLOUDY    43  41  93 S3        29.84R
OLATHE IND     CLOUDY    48  44  86 S12       29.91R
OLATHE EXE     CLOUDY    47  43  86 S10       29.90S
SALINA         CLOUDY    49  45  86 S15       29.81R
TOPEKA BILLARD CLOUDY    49  45  86 S7        29.88R
TOPEKA FORBES  CLOUDY    49  45  86 S12       29.87R
$$




USA.gov is the U.S. government's official web portal to all federal, state and local government web resources and services.